Flag for Italy Weather past 2 weeks in Bologna, Italy

Now
54 °F

Clear.


Feels Like: 50 °F
Forecast: 46 / 62 °F
Wind: 13 mph from Northwest

Location: Bologna / Borgo Panigale

Current Time: Oct 23, 2014 at 7:36:59 AM

Latest Report: Oct 23, 2014 at 6:50 AM


Visibility: 10 mi

Pressure: 29.80 "Hg

Humidity: 38%

Dew point: 28 °F

Location of BolognaLocation

Historic Weather in Bologna — Graph

°F

Bologna temperature yesterday

Maximum temperature yesterday: 66 °F (at 4:20 AM)
Minimum temperature yesterday: 55 °F (at 7:50 PM)
Average temperature yesterday: 60 °F

Past Weeks' High & Low Weather Summary

 TemperatureHumidityPressure
High81 °F (Oct 13, 12:50 PM)100% (Oct 9, 5:20 AM)30.30 "Hg (Oct 9, 5:20 AM)
Low54 °F (Oct 23, 4:50 AM)24% (Oct 22, 3:20 PM)29.53 "Hg (Oct 22, 1:50 AM)
Average66 °F84%29.99 "Hg
* Reported Oct 8 6:20 AM — Oct 23 6:20 AM, Bologna, Weather by CustomWeather, © 2014

Note: Actual official high and low records may vary slightly from our data, if they occured in-between our weather recording intervals... More about our weather records

Advertising

Bologna weather history for previous 24 hours

 ConditionsComfort  
Time TempWeatherWind HumidityBarometerVisibility
6:20 AM
Oct 23
54 °FClear.13 mph41%29.80 "Hg10 mi
5:50 AM54 °FClear.15 mph38%29.80 "Hg10 mi
5:20 AM55 °FClear.15 mph36%29.80 "Hg10 mi
4:50 AM54 °FClear.14 mph41%29.80 "Hg10 mi
4:20 AM55 °FClear.15 mph36%29.83 "Hg10 mi
3:50 AM55 °FPassing clouds.16 mph36%29.83 "HgN/A
3:20 AM55 °FClear.18 mph33%29.83 "Hg10 mi
2:50 AM55 °FClear.17 mph33%29.83 "Hg10 mi
2:20 AM55 °FClear.18 mph33%29.83 "Hg10 mi
1:50 AM55 °FClear.21 mph33%29.86 "Hg10 mi
1:20 AM55 °FClear.20 mph33%29.86 "Hg10 mi
12:50 AM55 °FClear.20 mph31%29.86 "Hg10 mi
12:20 AM55 °FClear.16 mph31%29.86 "Hg10 mi
11:50 PM
Oct 22
55 °FClear.17 mph31%29.89 "Hg10 mi
11:20 PM55 °FClear.17 mph31%29.89 "Hg10 mi
10:50 PM55 °FClear.20 mph31%29.89 "Hg10 mi
10:20 PM55 °FClear.21 mph31%29.89 "Hg10 mi
9:50 PM55 °FClear.21 mph31%29.89 "Hg10 mi
9:20 PM55 °FClear.21 mph31%29.86 "Hg10 mi
8:50 PM55 °FClear.21 mph31%29.86 "Hg10 mi
8:20 PM55 °FClear.20 mph31%29.86 "Hg10 mi
7:50 PM55 °FClear.20 mph31%29.86 "Hg10 mi
7:20 PM57 °FClear.17 mph31%29.83 "Hg10 mi
6:50 PM57 °FSunny.16 mph31%29.83 "Hg10 mi
6:20 PM59 °FSunny.16 mph27%29.83 "Hg10 mi
5:50 PM61 °FSunny.16 mph27%29.83 "Hg10 mi
5:20 PM63 °FSunny.18 mph25%29.83 "Hg10 mi
4:50 PM63 °FPassing clouds.16 mph27%29.83 "HgN/A
4:20 PM64 °FPassing clouds.17 mph24%29.83 "HgN/A
3:50 PM64 °FPassing clouds.21 mph24%29.80 "HgN/A
3:20 PM66 °FPassing clouds.18 mph24%29.80 "HgN/A
2:50 PM64 °FPassing clouds.23 mph26%29.80 "HgN/A
1:50 PM66 °FPassing clouds.18 mph28%29.80 "HgN/A
1:20 PM64 °FPassing clouds.16 mph32%29.80 "HgN/A
12:50 PM64 °FPassing clouds.13 mph34%29.83 "HgN/A
12:20 PM63 °FPassing clouds.17 mph37%29.83 "HgN/A
11:50 AM63 °FPassing clouds.15 mph37%29.83 "HgN/A
11:20 AM63 °FPassing clouds.16 mph34%29.83 "HgN/A
10:50 AM61 °FSunny.17 mph36%29.80 "Hg10 mi
10:20 AM59 °FSunny.15 mph42%29.83 "Hg10 mi
9:50 AM59 °FSunny.13 mph42%29.80 "Hg10 mi
9:20 AM57 °FSunny.12 mph44%29.80 "Hg10 mi
8:50 AM57 °FPassing clouds.3 mph41%29.80 "HgN/A
8:20 AM57 °FPassing clouds.10 mph39%29.77 "HgN/A
7:50 AM57 °FPassing clouds.16 mph36%29.74 "HgN/A
7:20 AM59 °FPassing clouds.18 mph34%29.71 "HgN/A
Weather by CustomWeather, © 2014

See weather overviewHow to use our weather pages